Content
SEND FEEDBACK

Daily
Averages
Monthly
Summary
Canada

ST. JOHN'S, NEWFOUNDLAND


Home > North America > Canada > Newfoundland
Elevation: 459 feet     Latitude: 47 37N     Longitude: 052 44W

WEATHER
 
SELECT A DAY
Number of Records: 206,008;   Date Range: 1/1/95 - 9/30/14
 
SHARE

PRINT THIS DATA

[ ← Previous Day ]
WEATHER ALMANAC - JANUARY 1, 2013
[ Next Day → ]
[ °C ]   °F
Weather ElementAverageHighLow
Temperature29.6 °F32 °F (1:30 am)26.6 °F (9:30 pm)
Dewpoint23 °F28.4 °F (1:30 am)19 °F (8:30 pm)
Humidity75.5 %93 % (4:30 am)59 % (8:30 pm)
Barometer29.07 in29.15 in (7:30 pm)28.87 in (1:30 am)
Wind Speed21.2 mph32.2 mph (8:30 am)
Wind Gust48.3 mph (6:30 am)
Weather ElementAverage
Visibility14.4 mi
Wind DirectionWSW (263.8 °)

Weather ElementTotal
Precipitation---
Heating Degree Days35.7 (Base 65)
Averaged from 29 records on January 1, 2013
WEATHER CONDITIONS BREAKOUT
WIND DIRECTION BREAKOUT
WEATHER BY HOUR - JANUARY 1, 2013
[ °C ]   °F
Local TimeTemperatureDewpointHumidityBarometerVisibilityWind DirectionWind SpeedGust SpeedPrecipitationEventsConditions
1:30 AM32.0 °F28.4 °F87 %28.87 in15.0 miWest (260°)19.6 mph26.5 mphSnowLight Snow Showers
2:30 AM32.0 °F26.0 °F72 %28.90 in15.0 miWest (270°)21.9 mphSnowLight Snow Showers
2:30 AM32.0 °F26.6 °F80 %28.90 in15.0 miWest (270°)18.4 mph32.2 mphSnowLight Snow Showers
3:30 AM32.0 °F24.8 °F75 %28.92 in15.0 miWest (270°)25.3 mph39.1 mphSnowLight Snow Showers
4:30 AM30.2 °F28.4 °F93 %28.95 in3.0 miWest (260°)23.0 mph31.1 mphSnowLight Snow Showers
5:30 AM30.2 °F24.8 °F80 %28.98 in15.0 miWest (280°)27.6 mph34.5 mphSnowLight Snow Showers
6:30 AM30.2 °F23.0 °F75 %29.00 in15.0 miWest (280°)26.5 mph48.3 mphOvercast
7:30 AM28.4 °F23.0 °F80 %29.04 in15.0 miWest (270°)20.7 mph32.2 mphMostly Cloudy
8:30 AM29.0 °F22.0 °F66 %29.06 in15.0 miWest (270°)32.2 mphPartly Cloudy
8:30 AM30.2 °F23.0 °F75 %29.05 in15.0 miWest (280°)29.9 mph41.4 mphMostly Cloudy
9:30 AM30.2 °F23.0 °F75 %29.08 in15.0 miWest (270°)31.1 mph42.6 mphMostly Cloudy
10:30 AM30.2 °F23.0 °F75 %29.11 in15.0 miWest (260°)27.6 mph34.5 mphMostly Cloudy
11:30 AM30.2 °F23.0 °F75 %29.11 in15.0 miWest (270°)19.6 mph28.8 mphMostly Cloudy
12:30 PM32.0 °F23.0 °F69 %29.10 in15.0 miWest (260°)17.3 mph31.1 mphMostly Cloudy
1:30 PM32.0 °F21.2 °F64 %29.10 in15.0 miWest (270°)20.7 mph29.9 mphMostly Cloudy
2:30 PM30.0 °F22.0 °F62 %29.10 in15.0 miWest (260°)24.2 mphOvercast
2:30 PM30.2 °F21.2 °F69 %29.10 in15.0 miWest (260°)24.2 mph39.1 mphOvercast
3:30 PM30.2 °F21.2 °F69 %29.10 in15.0 miWest (260°)23.0 mph33.4 mphMostly Cloudy
4:30 PM30.2 °F19.4 °F64 %29.11 in15.0 miWest (260°)28.8 mph39.1 mphMostly Cloudy
5:30 PM30.2 °F19.4 °F64 %29.13 in15.0 miWest (270°)25.3 mph34.5 mphMostly Cloudy
6:30 PM28.4 °F21.2 °F74 %29.13 in15.0 miWest (260°)17.3 mph23.0 mphMostly Cloudy
7:13 PM28.4 °F23.0 °F80 %29.14 in15.0 miWest (260°)12.7 mph20.7 mphSnowLight Snow Showers
7:30 PM28.4 °F23.0 °F80 %29.15 in12.0 miWest (260°)13.8 mphSnowLight Snow Showers
8:30 PM28.0 °F19.0 °F59 %29.15 in15.0 miWest (270°)16.1 mphSnowLight Snow Showers
8:30 PM28.4 °F19.4 °F69 %29.15 in15.0 miWest (270°)19.6 mph28.8 mphSnowLight Snow Showers
9:30 PM26.6 °F23.0 °F86 %29.15 in15.0 miWSW (250°)13.8 mphSnowLight Snow Showers
10:30 PM26.6 °F23.0 °F86 %29.15 in15.0 miWSW (240°)9.2 mphSnowLight Snow Showers
10:57 PM26.6 °F24.8 °F93 %29.15 in12.0 miWSW (250°)11.5 mphSnowLight Snow Showers
11:30 PM26.6 °F24.8 °F93 %29.14 in15.0 miWSW (240°)15.0 mphMostly Cloudy
Hourly data recorded from CYYT, located miles away from St. John's, Newfoundland







STORIES FROM OUR PARTNERS